Other Surface Observations
Issued by NWS

Home | Current Version | Previous Version | Text Only | Print | Product List | Glossary On
Versions: 1 2 3 4 5 6 7 8 9 10 11 12 13 14 15 16 17 18 19 20 21 22 23 24 25 26 27 28 29 30 31 32 33 34 35 36 37 38 39 40 41 42 43 44 45 46 47 48 49 50
855
SXUS52 KTAE 262219
OSOTAE
OSOTAE
North Florida/South Alabama/Southwest Georgia Weather Roundup
National Weather Service Tallahassee Florida
600 PM EDT FRI MAY 26 2017

Note: "fair" indicates few or no clouds below 12,000 feet with no
significant weather and/or obstructions to visibility.

!FLZ017-115-028-034-025-262300
...North Florida...

CITY           SKY/WX    TMP DP  RH WIND       PRES   REMARKS
TALLAHASSEE    MOSUNNY   85  61  44 SE9       30.02S
APALACHICOLA   SUNNY     79  64  60 SW12      30.04F
PERRY          SUNNY     83  57  40 W8        30.04R
CROSS CITY     SUNNY     84  59  42 W9        30.02F
JACKSONVILLE   MOSUNNY   88  51  28 W7        29.98F
$$

!FLZ112-006-005-002-011-262300
...Florida Panhandle...

CITY           SKY/WX    TMP DP  RH WIND       PRES   REMARKS
MARIANNA       SUNNY     89  59  36 W8        30.00S
BONIFAY        NOT AVBL
PANAMA CITY NW FAIR      80  61  52 SW6       30.03S
TYNDALL AFB    SUNNY     79  62  55 W8        30.04F
TYND DRONE APT FAIR      77  63  62 SW8       30.04F
DE FUNIAK SPR  FAIR      80  59  48 S6        30.04S
EGLIN AFB      MOSUNNY   79  60  52 S7        30.04S
DESTIN         SUNNY     82  64  54 S7        30.03F
HURLBURT       SUNNY     79  60  51 S8        30.02F
CRESTVIEW      SUNNY     84  57  39 S8        30.04S
PENSACOLA      SUNNY     81  60  48 S12       30.03S
$$

!ALZ063-066-262300
...South Alabama...

CITY           SKY/WX    TMP DP  RH WIND       PRES   REMARKS
DOTHAN         SUNNY     86  58  38 S7        30.04F
OZARK CAIRNS   SUNNY     87  59  39 S3        30.00F
FT RUCKER HELI SUNNY     87  59  39 SW8       30.00F
RUCKER HELI 3  FAIR      86  58  38 W7        30.00F
RUCKER HELI 2  FAIR      85  59  41 SW3       30.00R
FLORALA APT    SUNNY     84  58  40 SW12      30.03S
ANDALUSIA      SUNNY     90  60  36 VRB5      30.00S
TROY           SUNNY     85  61  44 S7        30.01F
EUFALA         FAIR      88  62  41 VRB6      29.99F
MOBILE         MOSUNNY   82  58  43 S9        30.02F
$$

!GAZ120>161-262300
...Southwest and South Central Georgia...

CITY           SKY/WX    TMP DP  RH WIND       PRES   REMARKS
THOMASVILLE    NOT AVBL
BAINBRIDGE     SUNNY     86  55  35 W5        30.02S
MOODY AFB      SUNNY     86  53  32 NW6       30.00S
VALDOSTA       SUNNY     85  55  35 VRB6      30.01F
MOULTRIE       SUNNY     86  52  30 NW6       30.03S
BLAKELY        SUNNY     88  57  35 SW6       30.01F
ALBANY         SUNNY     86  58  38 NW7       30.03F
TIFTON         FAIR      84  56  37 NW8       30.02S
FITZGERALD     FAIR      85  60  43 W7        30.04S
CORDELE        FAIR      88  56  33 W5        30.02F
AMERICUS       FAIR      84  52  32 W8        30.03S
HOMERVILLE     FAIR     N/A N/A N/A W8        30.02S
$$

!GMZ750-755-770-775-262300
...Coastal and Buoy Obs...

STATION/POSITION TIME  TEMP    WIND        PRES    VSBY  WAVE
                       AIR SEA DIR/SP/G                  HT/PER
                 (UTC) (F)     (DEG/KT/KT) (MB)    (MI)  (FT/S)
KEATON BEACH     2200   77     260/  9/ 10 1016.9F
CEDAR KEY        2200   78     310/  8/ 10 1017.4S
C TOWER          2200   75     220/  5/  6 1017.9F
APALACHICOLA BUO 2150   76 83  260/  2/  4 1017.5F         2/ 7
PANAMA CITY BUOY 2150   75 78  150/  6/  8 1017.3F         1/ 7
MOBILE BUOY      2200   77 79  160/  8/ 10 1016.9
ORANGE BCH AL BU 2150   76 78  170/  6/ 10 1017.0S         2/ 7
$$




USA.gov is the U.S. government's official web portal to all federal, state and local government web resources and services.